Wetbulb
59.80 59.76 59.66 59.72 60.01 60.06 60.14 60.47 60.40 60.35 60.30 60.59 60.54 60.56 61.18 61.49 61.02 58.44 50.35 58.83 60.77 71.54 74.10 64.73 61.71 63.67 63.48 61.05 64.56 66.22 53.91 51.55 55.37 57.65 59.09 65.55 63.57 67.35 68.63 65.94 66.45 67.26 65.68 66.76 68.61
59.29 59.34 59.42 59.52 59.85 59.83 59.94 60.06 60.30 60.28 60.22 60.15 60.21 60.51 60.99 61.43 57.28 54.12 62.52 70.33 70.93 74.16 61.36 58.32 56.44 57.74 54.97 57.26 58.61 59.73 52.65 55.13 61.64 61.71 61.66 64.63 64.58 64.92 64.59 64.46 64.48 64.73 66.74 68.15 69.20
59.24 59.21 59.07 59.22 59.51 59.64 59.80 59.95 60.01 59.77 59.77 59.77 60.03 60.49 61.07 60.66 53.87 55.48 72.16 71.45 73.08 73.20 60.66 57.84 57.37 56.75 53.31 53.58 56.00 61.75 55.49 60.85 63.31 63.67 65.92 63.89 64.11 66.26 61.87 61.00 63.66 63.38 65.10 66.68 67.29
58.94 58.76 58.82 58.91 59.09 59.15 59.21 59.44 59.29 59.19 59.00 59.45 59.95 60.52 61.33 57.37 48.64 58.30 74.01 74.52 75.53 68.92 58.75 56.66 57.48 54.76 52.85 51.06 59.98 58.39 62.50 62.16 65.03 66.08 64.55 63.29 64.72 63.18 63.18 62.41 66.70 67.14 66.92 66.97 66.26
58.64 58.59 58.45 58.52 58.69 58.78 59.03 58.86 58.65 58.53 58.38 59.30 60.02 60.66 57.82 50.68 51.70 60.03 74.61 74.33 68.20 59.88 56.07 55.81 55.75 54.66 51.44 54.07 59.84 58.74 63.31 62.49 63.68 63.80 64.39 65.00 63.00 62.49 62.42 65.95 67.96 67.73 67.29 66.26 66.35
58.18 58.26 58.27 58.35 58.46 58.54 58.60 58.53 58.02 58.08 58.23 59.38 60.01 60.52 53.02 45.22 56.09 61.42 65.23 61.12 59.15 55.11 55.15 56.56 56.86 57.65 54.35 51.54 53.01 63.24 63.75 61.61 62.66 62.85 64.55 62.74 63.18 62.80 62.59 66.03 66.28 66.41 65.90 66.42 66.61
57.88 58.03 58.04 58.06 58.27 58.23 58.15 57.89 57.84 57.85 58.66 59.69 60.09 60.21 53.72 49.32 59.77 58.65 57.23 53.87 54.31 54.52 53.92 57.65 58.87 55.10 53.10 50.77 64.00 61.66 58.15 58.21 58.77 61.30 61.36 63.96 59.85 59.22 63.22 64.57 63.41 64.50 64.52 66.22 66.94
57.58 57.78 57.64 57.62 57.64 57.57 57.28 56.88 57.28 58.35 59.84 60.16 60.76 56.10 48.00 55.86 58.19 57.49 56.29 55.83 56.86 54.00 55.33 57.51 58.35 54.70 51.62 52.90 53.82 58.15 56.51 51.24 57.31 60.73 61.90 61.78 53.31 60.69 63.84 62.19 61.25 62.53 63.72 64.61 66.00
57.54 57.39 57.19 57.07 57.10 56.79 56.58 56.59 57.90 60.22 61.73 61.64 53.11 51.10 47.64 60.23 56.64 57.52 56.26 56.32 55.73 55.52 54.54 60.03 56.33 51.31 50.97 47.13 44.56 48.16 45.90 51.35 54.32 60.77 61.25 60.05 55.55 60.67 63.45 61.73 60.39 61.01 61.74 63.46 65.40
57.34 57.01 56.89 56.85 56.63 56.00 55.04 55.73 60.06 59.23 60.63 61.03 59.90 48.96 52.16 52.43 55.16 55.05 54.99 56.34 55.24 55.53 55.86 53.20 49.54 46.62 45.18 44.27 39.88 44.00 44.67 49.48 51.11 57.89 60.08 58.24 57.79 60.34 62.14 60.97 60.25 60.05 61.36 62.27 64.42
57.14 56.69 56.63 56.45 54.93 54.39 51.70 51.98 52.38 49.90 53.61 48.40 48.82 49.83 54.84 56.90 57.34 53.23 55.50 55.21 54.04 52.74 48.39 50.15 46.18 43.63 46.47 46.70 47.84 46.27 45.07 46.19 49.63 55.41 57.97 57.48 57.84 58.96 61.84 61.08 60.65 60.48 60.40 61.34 62.08
56.55 56.39 56.16 55.16 54.00 53.28 51.15 49.36 52.44 53.52 47.88 54.24 54.20 53.24 54.29 54.29 52.78 53.90 55.72 52.13 50.13 46.99 47.66 45.99 43.22 48.77 49.79 49.44 48.06 46.35 45.31 46.15 49.59 59.20 57.77 56.37 57.09 58.64 61.09 61.16 61.98 60.75 60.28 60.72 61.97
56.11 55.92 55.58 54.24 53.67 50.44 49.54 52.46 55.97 55.68 47.62 51.16 53.47 52.43 52.78 54.29 51.94 52.71 53.82 51.13 48.37 46.55 46.98 44.48 48.17 51.48 49.48 47.82 46.71 46.60 43.55 46.47 46.81 53.51 58.11 53.58 49.66 55.48 59.43 61.11 61.92 61.81 61.78 61.99 62.08
55.82 55.54 54.85 53.17 50.90 51.50 52.50 55.17 55.65 55.69 42.33 47.19 48.83 53.28 54.84 55.36 51.52 56.62 54.61 51.77 48.85 47.89 47.93 46.30 50.94 50.06 48.25 47.03 47.03 40.81 50.08 48.89 48.34 44.85 43.54 50.83 40.38 45.48 55.14 56.70 59.33 60.07 60.70 61.17 62.08
55.40 54.95 53.83 52.24 47.36 50.27 56.42 53.28 54.18 51.62 36.36 51.33 48.75 56.53 53.99 51.26 50.10 51.27 53.13 52.40 48.06 49.40 48.15 46.89 47.83 47.88 46.65 48.46 48.91 46.24 50.56 48.94 48.89 44.48 41.82 44.00 41.03 43.86 52.33 53.64 57.32 58.73 58.92 61.30 62.06
54.89 54.02 53.02 49.85 48.45 51.71 54.23 54.54 51.96 43.13 39.03 48.96 51.42 50.57 51.05 49.66 50.92 52.30 50.20 52.62 52.87 49.49 47.59 48.57 50.97 49.82 49.13 51.41 50.77 51.85 47.66 45.21 43.49 41.13 36.52 41.05 42.64 43.06 48.09 53.53 56.27 60.26 59.99 60.41 62.45
53.17 52.13 51.09 54.08 53.61 55.44 55.47 52.56 42.73 38.70 50.28 48.42 46.28 48.90 47.15 45.59 48.70 49.70 47.60 46.21 45.37 41.25 41.63 46.24 48.84 49.59 51.71 47.59 49.31 45.00 40.26 35.63 35.22 34.54 35.29 38.19 42.12 44.57 50.60 54.39 57.76 58.38 59.42 61.28 63.25
51.29 50.68 50.42 53.10 52.57 55.54 54.29 48.67 38.68 47.71 47.71 50.85 49.89 47.28 45.84 45.75 45.72 46.87 46.63 44.67 46.41 44.05 40.53 40.59 41.86 47.47 50.23 48.51 46.44 44.24 41.25 36.61 31.49 32.25 36.23 39.85 39.05 44.58 51.72 55.65 57.55 59.43 60.24 62.35 61.56
50.81 49.81 50.21 53.97 53.49 53.61 51.46 41.43 41.93 46.06 50.78 50.57 49.29 46.39 44.92 49.26 48.65 47.97 43.33 43.19 46.07 47.14 43.38 39.15 42.23 50.23 50.89 50.06 49.47 43.82 39.27 41.53 35.93 33.07 34.45 37.53 43.16 49.55 54.66 55.30 57.55 57.14 59.28 59.96 61.22
50.29 52.94 54.49 57.88 56.80 54.18 48.40 42.82 46.26 51.40 52.80 49.45 44.55 47.27 43.45 46.25 47.17 45.78 45.84 50.33 50.72 50.62 47.05 44.27 40.84 48.27 50.92 50.34 48.86 46.06 45.12 38.61 35.18 32.23 29.93 36.24 39.80 41.49 50.67 53.68 55.64 55.90 58.02 60.22 61.21
53.09 53.81 57.54 57.66 56.51 51.34 43.28 44.05 50.26 54.75 53.93 48.79 46.89 45.54 45.66 45.85 46.06 45.45 47.00 50.68 53.27 52.81 49.76 44.63 41.70 44.90 46.28 44.54 45.14 43.37 40.48 37.44 37.43 35.48 32.87 31.95 37.45 47.03 51.15 54.16 55.19 56.33 57.60 60.14 59.73
51.31 51.02 57.28 56.41 49.32 45.29 45.30 48.85 51.20 49.22 51.56 51.33 50.52 48.87 46.90 46.25 45.26 45.79 45.81 48.01 53.07 53.69 48.02 48.21 41.69 39.20 44.32 47.44 48.58 43.44 40.18 38.25 35.75 35.04 34.46 34.85 37.48 49.42 50.58 54.74 57.32 56.98 57.64 59.17 59.53
48.72 49.75 55.88 55.51 44.08 43.13 45.76 48.24 48.35 48.83 48.14 49.86 47.39 48.61 48.02 44.33 42.49 46.64 46.97 50.97 52.09 53.27 49.01 50.51 41.82 36.88 41.00 44.43 49.09 45.49 45.47 38.85 38.00 35.63 34.81 34.54 38.03 48.06 54.21 55.41 57.24 57.90 58.85 58.92 58.84
49.18 45.74 48.17 47.93 45.31 43.68 42.72 43.95 45.31 51.03 48.70 49.50 46.51 46.69 44.77 42.26 43.87 43.32 44.87 49.59 50.54 50.87 59.10 52.78 43.01 40.98 37.91 40.91 45.07 44.25 48.38 47.10 41.59 38.29 36.85 37.94 42.10 46.42 48.46 54.16 56.02 57.27 58.19 57.70 57.34
46.44 43.93 45.15 42.82 44.33 44.68 42.21 45.03 45.79 44.96 47.57 47.86 45.96 45.97 43.31 39.07 41.59 41.23 44.27 44.87 49.14 53.40 49.27 47.09 42.09 42.74 44.52 47.14 48.32 48.80 48.71 49.06 44.60 42.89 40.80 43.29 41.56 46.30 48.31 50.04 54.48 56.97 57.39 57.08 56.09
44.56 43.47 44.99 43.27 44.78 42.66 42.96 42.79 45.09 46.31 45.81 44.11 44.16 46.41 44.39 39.26 40.82 40.92 41.04 39.79 42.37 45.59 43.76 45.43 38.77 41.38 40.54 46.39 48.54 46.62 48.18 49.37 49.06 48.54 44.59 45.01 45.81 48.61 52.27 53.56 56.25 56.92 56.66 57.22 56.02
48.68 48.17 46.45 43.93 42.77 41.61 42.21 45.03 47.04 46.71 47.15 48.81 47.74 45.30 44.24 45.88 47.38 45.81 44.50 44.61 44.70 42.17 41.62 40.13 39.71 38.99 33.81 43.51 42.97 37.14 45.28 49.15 48.86 49.51 47.62 43.49 47.73 56.17 55.19 53.07 54.87 56.71 57.36 56.49 57.52
MSLP
1016.51 1016.20 1015.91 1015.62 1015.30 1015.03 1014.78 1014.53 1014.24 1013.99 1013.79 1013.50 1013.19 1012.89 1012.58 1012.26 1011.56 1011.50 1010.41 1008.18 1007.97 1007.76 1008.27 1008.55 1008.45 1008.52 1008.54 1008.76 1008.51 1008.93 1009.94 1010.12 1009.71 1009.25 1008.56 1008.06 1007.99 1008.23 1008.26 1008.42 1008.97 1009.23 1009.53 1009.76 1010.97
1016.52 1016.18 1015.89 1015.58 1015.24 1014.92 1014.65 1014.42 1014.18 1013.94 1013.72 1013.45 1013.15 1012.84 1012.51 1012.19 1011.66 1010.26 1007.48 1007.27 1007.33 1007.87 1008.29 1008.34 1008.36 1008.38 1008.64 1008.64 1008.53 1008.83 1009.40 1009.34 1008.93 1008.65 1008.23 1007.96 1008.03 1008.29 1008.83 1009.19 1009.42 1009.71 1010.14 1010.45 1011.18
1016.50 1016.19 1015.85 1015.53 1015.21 1014.86 1014.51 1014.27 1014.06 1013.86 1013.62 1013.32 1012.97 1012.64 1012.37 1012.16 1011.23 1008.12 1006.63 1006.81 1007.11 1007.86 1008.14 1008.18 1008.41 1008.52 1008.71 1008.71 1008.49 1008.17 1008.78 1008.55 1008.26 1008.06 1007.92 1008.12 1008.34 1008.49 1009.10 1009.63 1009.43 1009.69 1010.30 1010.83 1011.39
1016.47 1016.14 1015.81 1015.46 1015.13 1014.79 1014.45 1014.16 1013.94 1013.73 1013.50 1013.21 1012.90 1012.62 1012.31 1011.99 1009.99 1006.82 1006.44 1006.40 1007.14 1007.80 1008.12 1008.16 1008.55 1008.69 1008.81 1008.69 1007.94 1008.17 1008.32 1008.05 1007.93 1007.89 1008.05 1008.33 1008.43 1008.70 1009.07 1009.38 1009.19 1009.69 1009.98 1010.51 1011.23
1016.39 1016.06 1015.69 1015.32 1014.98 1014.67 1014.34 1014.00 1013.80 1013.59 1013.35 1013.06 1012.82 1012.54 1012.22 1011.33 1008.73 1006.52 1006.49 1006.63 1007.33 1007.83 1008.06 1008.34 1008.52 1008.62 1008.84 1008.56 1007.99 1008.04 1008.24 1008.45 1008.37 1008.21 1008.10 1008.38 1008.65 1008.95 1008.97 1008.97 1009.07 1009.51 1010.17 1010.55 1011.07
1016.27 1015.90 1015.55 1015.17 1014.78 1014.45 1014.15 1013.90 1013.61 1013.35 1013.14 1012.90 1012.75 1012.60 1012.10 1010.32 1006.93 1006.60 1006.80 1007.11 1007.27 1007.72 1007.92 1008.12 1008.17 1008.32 1008.76 1008.36 1008.48 1008.31 1008.43 1008.59 1008.54 1008.33 1008.13 1008.54 1008.99 1009.11 1008.73 1008.97 1009.29 1009.60 1009.93 1010.44 1010.78
1016.16 1015.74 1015.36 1015.02 1014.63 1014.25 1013.90 1013.58 1013.31 1013.11 1012.92 1012.73 1012.68 1012.55 1011.69 1008.47 1007.15 1007.08 1007.09 1007.23 1007.26 1007.57 1007.73 1007.59 1007.78 1008.29 1008.58 1008.57 1008.27 1008.37 1008.73 1008.80 1008.55 1008.40 1008.28 1008.68 1009.27 1008.91 1008.54 1008.75 1009.21 1009.42 1009.78 1010.10 1010.36
1016.01 1015.57 1015.19 1014.85 1014.46 1014.00 1013.57 1013.24 1012.98 1012.77 1012.65 1012.60 1012.59 1012.37 1010.61 1007.51 1007.25 1007.14 1007.09 1007.21 1006.93 1007.15 1007.62 1007.23 1007.62 1008.06 1008.45 1008.42 1008.57 1009.00 1009.20 1009.22 1008.53 1008.48 1008.26 1008.51 1008.42 1007.76 1007.97 1008.93 1009.29 1009.22 1009.36 1009.65 1009.78
1015.75 1015.34 1014.95 1014.63 1014.31 1013.83 1013.24 1012.82 1012.46 1012.36 1012.38 1012.46 1012.52 1012.00 1009.73 1007.25 1007.11 1006.39 1006.69 1006.90 1007.00 1007.01 1007.30 1007.45 1007.49 1008.26 1008.70 1009.14 1009.45 1009.54 1009.44 1009.28 1008.67 1008.11 1008.14 1008.45 1008.08 1007.39 1007.55 1008.42 1009.02 1009.08 1008.83 1009.10 1009.21
1015.52 1015.10 1014.69 1014.30 1013.95 1013.57 1012.98 1012.53 1012.25 1012.34 1012.41 1012.31 1011.88 1011.69 1008.77 1007.06 1006.38 1006.10 1006.25 1006.68 1007.09 1007.46 1007.61 1007.69 1008.48 1009.02 1009.56 1009.97 1010.13 1009.82 1009.66 1009.17 1008.54 1007.74 1008.01 1008.25 1007.47 1007.55 1007.81 1008.25 1008.51 1008.72 1008.83 1008.63 1008.77
1015.20 1014.85 1014.49 1014.07 1013.75 1013.48 1012.71 1012.40 1012.71 1012.29 1011.72 1010.18 1009.51 1008.85 1007.49 1006.31 1005.90 1005.92 1006.02 1006.76 1007.27 1007.85 1008.43 1008.49 1009.40 1009.54 1009.27 1009.61 1009.51 1009.57 1009.45 1009.06 1007.43 1006.83 1007.49 1007.40 1007.24 1007.48 1007.68 1008.24 1008.48 1008.41 1008.43 1008.39 1008.47
1014.95 1014.46 1014.07 1013.78 1013.59 1013.48 1013.45 1012.32 1010.54 1010.09 1009.81 1008.52 1008.13 1007.79 1007.00 1006.56 1006.56 1005.83 1005.97 1006.98 1007.55 1008.33 1008.81 1009.34 1009.29 1008.54 1008.75 1008.95 1009.24 1009.21 1009.04 1007.77 1006.90 1006.25 1006.91 1007.34 1007.31 1007.12 1007.22 1006.95 1007.41 1007.94 1008.34 1008.35 1008.58
1014.60 1014.12 1013.74 1013.41 1013.15 1013.20 1012.54 1010.88 1009.37 1009.40 1009.58 1007.59 1007.17 1006.88 1006.44 1006.53 1006.55 1005.83 1005.86 1006.46 1007.27 1008.23 1008.84 1009.10 1007.80 1008.12 1008.31 1008.20 1008.69 1008.32 1008.35 1007.15 1007.01 1006.35 1006.79 1007.21 1007.69 1007.12 1006.64 1006.91 1007.18 1007.55 1007.79 1008.17 1008.30
1014.31 1013.85 1013.43 1013.04 1013.26 1012.44 1011.40 1009.79 1009.27 1009.40 1009.30 1007.25 1006.49 1005.40 1005.62 1005.66 1005.65 1004.91 1005.13 1006.32 1007.22 1007.60 1008.46 1008.65 1007.42 1007.67 1007.72 1007.77 1008.12 1008.02 1006.54 1006.61 1006.55 1006.88 1007.20 1007.24 1007.74 1007.13 1006.79 1007.04 1007.22 1007.32 1007.48 1007.63 1007.98
1013.67 1013.44 1013.22 1013.10 1012.83 1011.82 1009.78 1009.40 1009.09 1009.17 1008.49 1006.07 1005.40 1004.64 1005.01 1005.31 1004.93 1004.65 1004.60 1005.56 1006.55 1007.11 1008.06 1007.59 1007.12 1007.10 1007.20 1006.94 1007.04 1006.79 1006.33 1006.54 1006.55 1007.06 1007.58 1007.64 1008.35 1006.58 1006.79 1006.48 1006.12 1006.72 1006.77 1007.00 1007.41
1013.17 1012.86 1012.84 1012.95 1012.74 1010.22 1009.28 1009.26 1009.11 1009.38 1007.30 1005.37 1004.71 1004.76 1005.21 1004.98 1004.71 1004.54 1004.78 1005.12 1005.82 1006.81 1007.30 1006.96 1006.35 1006.39 1006.01 1005.63 1005.99 1006.05 1006.29 1007.04 1007.85 1008.34 1008.60 1007.83 1008.24 1006.44 1006.18 1004.97 1004.71 1005.15 1005.61 1006.14 1006.69
1012.47 1012.28 1012.47 1011.70 1010.78 1009.46 1009.01 1009.36 1009.92 1008.96 1006.86 1005.80 1004.98 1004.77 1004.95 1005.32 1005.38 1005.31 1005.68 1006.01 1006.47 1007.37 1007.65 1006.87 1006.11 1005.67 1005.47 1005.62 1005.39 1006.01 1007.37 1008.24 1009.24 1009.56 1009.29 1008.25 1008.08 1005.84 1004.08 1003.84 1003.61 1004.16 1004.53 1004.76 1005.21
1011.54 1011.22 1011.37 1010.64 1009.91 1009.59 1009.39 1010.06 1009.93 1008.53 1007.21 1005.95 1005.32 1005.10 1005.57 1005.58 1005.62 1005.54 1005.89 1006.51 1006.65 1007.02 1007.73 1007.44 1006.03 1004.97 1004.68 1004.91 1005.18 1006.00 1007.17 1008.62 1009.47 1010.15 1009.51 1008.21 1007.11 1004.62 1003.57 1002.80 1002.67 1003.20 1003.49 1004.43 1005.19
1011.06 1011.19 1011.15 1009.53 1009.59 1010.19 1010.43 1010.84 1009.81 1008.58 1007.20 1006.46 1005.68 1006.01 1006.31 1006.19 1006.32 1006.32 1006.66 1006.77 1006.65 1006.88 1007.67 1007.52 1006.07 1004.67 1004.40 1004.52 1005.13 1005.66 1006.72 1007.07 1008.87 1010.25 1010.03 1008.56 1006.55 1004.52 1003.31 1002.75 1002.55 1003.28 1003.59 1003.92 1003.87
1011.35 1010.91 1009.93 1008.86 1009.11 1009.75 1010.69 1010.88 1009.79 1008.31 1007.06 1006.57 1006.62 1006.62 1007.16 1007.44 1007.38 1007.32 1007.36 1007.80 1007.12 1006.59 1006.38 1006.78 1006.46 1004.80 1003.93 1004.10 1004.19 1004.87 1005.84 1007.29 1009.09 1010.27 1010.37 1008.92 1007.13 1005.14 1003.60 1002.95 1002.28 1003.12 1003.10 1003.35 1003.60
1011.33 1010.87 1009.46 1008.80 1009.05 1010.44 1011.29 1010.70 1009.20 1007.64 1006.84 1006.64 1006.63 1007.15 1007.93 1008.38 1008.19 1008.30 1008.46 1008.13 1007.70 1007.19 1006.91 1007.45 1007.39 1005.63 1005.11 1004.55 1004.49 1005.24 1005.92 1007.16 1008.43 1009.50 1009.91 1009.20 1007.46 1004.09 1003.26 1002.68 1002.48 1002.27 1002.43 1002.75 1003.16
1011.77 1011.44 1009.83 1009.49 1010.39 1011.52 1011.35 1010.23 1008.93 1008.00 1007.26 1006.92 1007.12 1007.70 1008.22 1008.64 1008.71 1008.88 1009.26 1009.07 1008.44 1008.12 1008.57 1008.23 1008.27 1007.62 1005.91 1004.85 1004.65 1004.80 1005.93 1007.03 1008.75 1009.50 1009.44 1008.75 1006.27 1003.98 1003.16 1002.51 1002.23 1001.99 1002.36 1002.24 1002.57
1012.94 1012.14 1010.14 1009.86 1011.44 1012.05 1011.16 1010.16 1009.42 1008.83 1008.51 1008.25 1008.75 1008.75 1008.94 1009.56 1009.73 1009.60 1009.65 1009.44 1009.06 1008.92 1009.30 1008.86 1009.22 1008.83 1007.18 1006.28 1005.83 1006.24 1006.68 1007.35 1008.05 1008.69 1008.87 1008.47 1005.99 1003.98 1003.43 1002.64 1002.26 1002.79 1002.39 1002.63 1002.57
1013.57 1013.32 1012.28 1011.88 1012.41 1012.51 1012.13 1011.05 1010.14 1009.37 1009.37 1009.43 1009.82 1009.74 1010.02 1010.45 1010.51 1010.49 1010.24 1009.83 1009.77 1009.60 1009.54 1009.39 1010.34 1010.39 1009.63 1008.85 1008.26 1007.69 1007.48 1007.44 1007.86 1008.51 1008.56 1007.63 1006.04 1004.70 1003.95 1003.44 1002.58 1002.36 1002.70 1002.82 1002.81
1014.54 1015.56 1015.28 1014.24 1013.67 1013.44 1012.68 1011.82 1011.13 1010.48 1010.10 1010.15 1010.67 1010.95 1011.09 1011.26 1011.30 1011.19 1010.86 1010.61 1010.12 1010.21 1010.23 1010.87 1011.28 1010.94 1010.32 1009.69 1008.88 1008.04 1007.73 1007.70 1007.66 1007.40 1007.62 1006.65 1006.05 1004.92 1004.14 1003.38 1002.68 1002.39 1002.88 1003.32 1002.81
1016.31 1016.66 1015.94 1015.51 1014.77 1014.04 1013.51 1013.16 1012.29 1011.56 1011.15 1011.33 1011.48 1011.52 1011.63 1011.99 1012.28 1012.07 1011.60 1011.43 1011.12 1010.88 1011.22 1011.57 1011.74 1011.46 1010.81 1009.96 1009.12 1008.06 1007.08 1006.52 1006.61 1006.62 1006.50 1006.07 1005.42 1004.25 1003.72 1003.05 1002.15 1002.08 1002.58 1002.84 1003.01
1017.26 1017.04 1016.85 1016.52 1015.70 1015.02 1014.60 1013.69 1013.14 1012.43 1012.15 1012.05 1011.87 1011.70 1011.97 1012.14 1012.12 1011.74 1011.56 1011.50 1011.42 1011.63 1011.93 1012.24 1012.33 1012.43 1011.21 1010.35 1009.34 1007.90 1006.08 1005.76 1006.01 1006.22 1006.41 1006.32 1005.80 1005.22 1003.87 1003.23 1002.22 1001.37 1001.83 1002.12 1002.38
Wind_Speed
11 11 11 12 12 13 12 12 12 12 13 12 12 12 12 12 13 2 5 10 7 2 4 1 1 3 2 3 5 4 2 1 2 0 4 1 1 4 4 9 3 2 6 8 13
12 12 12 12 13 14 13 12 12 12 12 12 12 12 11 11 3 6 11 10 13 7 2 2 4 5 2 2 2 3 2 4 3 3 4 2 3 5 4 2 4 6 9 15 15
12 12 13 13 14 14 14 13 12 12 12 12 12 11 10 7 3 7 2 14 12 10 0 1 2 2 3 2 3 5 3 5 2 4 3 5 1 1 10 2 4 12 14 14 16
13 13 13 14 14 14 14 13 13 12 12 11 11 11 10 2 2 3 4 11 10 8 1 3 4 4 5 5 5 4 4 4 2 1 3 6 4 2 5 5 6 11 14 13 13
14 14 14 14 14 13 13 14 13 12 12 10 9 9 2 2 9 1 6 10 8 6 3 2 1 1 3 6 5 3 3 3 2 2 2 7 5 3 5 5 10 12 13 12 10
14 14 14 14 14 14 13 13 13 12 10 8 7 6 0 3 3 1 6 4 6 5 4 5 4 3 2 6 0 1 2 2 3 3 3 4 2 1 3 6 9 11 12 12 12
15 15 14 14 14 15 14 14 13 11 8 5 4 3 1 14 4 6 4 1 2 3 4 5 4 3 2 6 4 5 0 4 6 3 4 6 4 8 5 10 9 13 9 10 11
15 15 15 15 15 15 16 15 14 10 6 3 3 1 8 4 4 7 4 4 4 3 3 4 5 3 4 2 5 1 3 3 2 4 4 7 9 10 8 12 12 12 12 12 14
16 16 16 15 14 15 15 18 10 3 3 6 2 2 11 7 4 7 6 6 1 3 3 6 2 1 5 2 5 4 3 3 8 11 4 6 8 7 8 11 11 11 11 8 11
16 16 16 15 14 14 19 8 5 5 2 3 3 3 6 3 4 4 6 4 4 3 6 0 6 2 4 5 4 3 5 4 7 5 6 8 18 3 6 9 11 8 9 10 15
17 16 15 14 15 13 10 3 3 2 2 9 8 5 5 5 3 4 5 6 3 4 4 3 4 7 12 6 7 3 4 8 17 10 6 16 16 8 8 6 8 8 8 7 11
18 17 15 16 14 11 3 3 4 3 8 13 11 8 3 4 6 3 7 7 6 6 3 5 7 12 5 4 5 5 7 17 13 5 10 3 17 6 10 14 16 10 7 8 6
18 17 15 16 15 1 3 6 3 5 1 8 6 6 6 9 8 9 10 5 4 5 6 7 13 2 3 6 4 10 6 13 8 4 3 3 7 6 7 1 5 5 6 6 11
17 16 14 17 2 1 4 3 8 7 5 7 3 7 5 6 5 9 8 7 2 11 6 6 9 8 7 9 4 8 14 14 6 3 4 5 7 7 5 4 6 8 9 11 10
18 14 10 6 3 3 1 5 2 4 3 2 2 1 3 9 2 4 5 6 9 8 8 11 4 6 5 10 7 12 5 5 4 3 2 2 1 9 3 6 14 12 11 11 12
18 13 7 2 1 8 8 6 4 7 2 5 3 4 5 2 2 3 4 4 4 5 2 10 2 5 9 8 7 7 2 5 5 3 2 3 4 10 4 8 5 11 14 14 13
17 9 4 1 3 6 5 4 6 3 4 7 2 4 2 1 4 1 4 7 7 3 7 5 13 5 5 6 4 5 6 4 6 5 9 1 2 12 13 7 12 8 14 17 18
21 3 8 5 2 6 4 7 2 2 5 5 5 3 3 2 3 2 7 6 5 1 3 5 11 8 3 9 7 3 8 7 7 4 6 4 4 9 4 6 7 8 9 9 9
12 1 1 4 7 1 7 3 6 6 4 5 6 7 4 5 1 5 1 2 5 11 8 5 10 2 3 3 6 4 5 4 7 2 4 4 9 10 6 1 6 8 7 12 15
2 2 3 4 6 5 6 4 4 5 4 1 3 1 3 6 6 6 7 8 8 2 5 7 7 5 11 4 3 8 6 3 4 3 4 5 6 7 8 8 8 10 13 11 10
2 4 3 5 4 6 3 6 6 7 5 3 2 2 4 3 3 3 6 6 13 9 6 1 3 8 1 5 7 1 3 4 6 5 6 2 8 9 9 10 10 10 11 14 11
2 4 3 3 5 1 1 5 4 8 6 5 5 5 3 5 3 4 4 5 12 5 3 2 3 4 9 3 5 1 4 5 6 7 4 6 9 4 9 11 7 9 10 8 8
3 2 4 5 2 3 6 5 5 6 7 6 7 6 4 2 2 3 4 2 10 6 5 5 3 5 11 7 7 7 5 3 4 4 4 5 8 3 5 7 6 8 6 4 5
3 3 5 5 1 2 4 4 3 5 4 5 4 5 5 4 5 1 4 3 5 4 7 5 2 5 6 5 3 4 6 4 3 3 3 6 8 10 8 7 11 8 8 6 6
5 1 2 3 4 5 2 4 3 5 4 9 5 5 4 4 6 3 1 5 3 5 5 5 3 3 6 8 5 6 6 5 6 6 6 8 7 10 9 10 9 7 6 7 8
4 4 5 1 4 3 6 6 5 6 4 4 3 3 2 3 2 6 3 2 4 4 1 1 5 2 6 7 8 10 11 10 8 7 6 5 6 4 10 9 7 9 9 12 10
3 2 4 4 5 3 2 3 4 5 2 5 3 2 5 4 6 7 7 4 6 5 4 4 4 2 7 2 6 9 8 6 4 3 1 1 4 10 12 9 10 9 10 9 10
Wind_Direction
349 347 345 341 337 336 336 335 333 333 334 331 330 328 326 322 310 150 248 220 190 184 102 359 221 233 175 208 209 124 66 254 239 224 258 249 203 41 18 125 76 242 145 154 143
349 347 342 340 335 333 333 332 331 331 331 329 326 324 325 330 312 253 237 219 222 123 80 18 322 359 340 249 241 146 118 211 234 222 240 176 163 142 80 48 68 79 85 116 135
346 344 340 339 336 333 331 329 329 329 327 324 321 322 322 323 321 248 210 213 205 148 13 344 322 10 340 351 262 207 211 186 215 238 182 151 122 34 124 238 230 159 148 145 149
342 341 339 335 335 333 330 327 327 326 323 317 314 317 319 305 209 254 338 211 140 136 60 341 45 350 331 332 238 135 217 201 181 52 140 152 158 126 185 208 183 168 158 150 167
340 337 335 332 332 331 327 325 322 323 319 309 308 318 318 357 252 298 68 113 117 129 189 142 53 222 352 309 294 123 210 350 349 328 140 136 205 217 220 196 164 156 163 168 176
336 333 331 329 329 327 324 319 317 318 319 308 297 308 14 260 269 270 102 126 135 158 163 159 198 198 308 266 55 186 68 340 276 256 136 139 253 351 185 154 157 168 183 180 183
334 331 329 329 327 325 320 314 310 308 309 295 264 262 137 233 51 59 99 196 185 184 175 213 142 90 324 312 227 115 245 277 222 237 195 127 278 238 170 162 174 181 187 194 197
333 332 331 329 327 323 315 311 304 295 276 231 206 249 248 258 325 281 185 264 267 224 240 219 160 218 164 287 6 268 55 353 234 198 217 146 269 240 194 160 191 197 203 204 207
330 331 328 327 325 320 313 312 299 248 167 157 127 133 266 306 260 235 159 208 125 284 285 308 164 172 27 44 7 338 257 255 313 200 155 175 261 267 173 183 206 199 210 201 191
329 328 324 324 325 324 319 291 120 107 164 203 257 3 279 218 226 195 195 143 216 44 345 224 55 38 25 72 241 254 310 273 244 233 202 210 253 277 212 167 211 210 213 228 192
327 324 322 323 332 337 348 97 33 347 245 196 196 231 286 264 234 201 150 100 103 74 217 329 37 250 249 208 231 265 255 256 283 268 160 211 237 235 216 196 213 224 215 200 178
323 321 321 326 325 322 297 184 211 209 296 229 237 267 296 69 345 318 115 144 141 195 100 359 248 242 247 267 233 241 274 281 277 210 176 141 248 237 206 215 205 203 208 196 140
323 320 319 323 319 277 207 229 209 33 287 294 192 205 207 141 205 251 146 156 140 170 175 188 244 39 250 286 305 282 220 271 236 337 202 108 296 252 240 43 174 206 199 196 189
320 318 319 324 307 305 250 242 258 171 51 279 261 268 153 145 257 208 186 131 217 204 174 225 272 237 269 275 153 264 276 256 256 113 221 140 272 278 282 266 212 209 206 202 199
320 317 313 322 285 189 225 330 93 62 45 326 200 70 168 154 220 225 196 82 179 191 123 240 242 224 229 239 169 237 283 259 265 167 47 247 52 269 3 264 231 207 212 205 195
319 315 314 127 215 246 304 323 60 39 351 350 119 171 132 268 291 105 144 86 183 176 242 234 283 177 221 256 189 266 297 36 43 70 28 271 131 287 225 221 251 189 196 201 196
321 293 223 197 219 302 294 53 42 111 330 337 290 164 162 49 349 20 159 201 182 138 243 307 257 255 189 275 333 86 60 332 340 359 236 36 111 240 261 247 238 174 195 197 195
327 198 217 228 280 346 43 51 121 254 279 308 321 73 77 119 242 250 158 215 287 32 99 187 314 173 178 187 213 215 155 161 226 212 255 310 256 266 323 281 191 179 192 166 169
325 105 184 258 193 151 73 72 209 211 268 310 338 59 358 358 76 20 231 293 209 169 196 160 266 213 253 111 122 277 227 210 107 23 50 257 292 317 331 144 175 146 158 167 182
15 359 283 135 158 65 77 230 239 228 309 248 103 71 46 341 21 18 5 13 339 270 203 228 265 235 277 170 244 162 170 72 14 164 243 281 280 242 302 262 238 161 198 195 189
45 53 287 168 81 48 140 231 265 269 234 231 148 118 149 145 169 44 345 38 355 327 40 45 175 282 180 181 203 163 242 47 119 129 173 191 265 214 228 236 235 232 211 201 188
58 56 329 356 51 42 191 208 272 324 358 13 60 74 32 25 58 70 84 15 339 333 14 296 169 272 240 265 320 124 87 135 122 263 172 160 267 267 254 261 226 235 224 212 221
68 267 329 74 80 327 306 300 28 26 6 20 23 52 33 60 85 78 23 71 2 34 19 333 355 339 344 8 6 37 17 97 105 67 213 137 266 310 340 291 275 290 243 246 251
63 47 336 45 66 78 348 317 14 354 64 60 23 62 47 51 359 74 360 359 356 2 10 95 78 159 204 228 250 300 339 352 102 111 217 221 278 317 310 256 266 237 263 226 238
24 27 176 327 340 353 329 339 13 0 24 26 39 65 38 7 352 353 304 321 312 14 40 76 282 229 239 257 260 258 236 258 229 209 174 253 208 265 272 281 240 227 237 228 211
70 35 354 315 302 351 6 355 15 335 33 352 62 315 108 81 235 269 263 235 227 325 69 191 257 294 278 229 248 284 278 254 224 243 230 249 268 223 300 284 272 198 177 229 234
328 1 99 308 350 62 333 312 24 348 329 36 338 98 58 317 284 234 215 214 225 209 234 188 191 192 259 233 338 298 227 192 136 89 258 182 247 327 313 301 272 238 183 191 217